Location: Litvinovka
(48.6667°N, 34.3500°E)
Time: 01:19:20
(UTC+00:00)

YAOGAN 1 - Pass Details

Date: 18 September 2020
Orbit: 618 x 620 km, 97.9° (Epoch: 23 October)

Event Time Altitude Azimuth Distance (km) Brightness Sun altitude
Rises 16:44:50 0° 182° (S) 2,885 5.9 -10.0°
Reaches altitude 10° 16:47:06 10° 189° (S) 1,984 5.1 -10.4°
Maximum altitude 16:51:13 44° 261° (W) 868 3.8 -11.1°
Drops below altitude 10° 16:55:23 10° 334° (NNW) 2,000 5.8 -11.7°
Sets 16:57:41 0° 341° (NNW) 2,911 6.5 -12.1°
